| time (UTC) | temp C | wind direction | speed KPH | gust KPH | rain 1hr cm | rain 24hr cm | rain mn cm | humidity % | barometer mb |
| 20260510170119 | 16 | 280 | 0.0 | 3.2 | 0.00 | 1.32 | 0.00 | 84 | 1015.0 |
| 20260510164601 | 15 | 280 | 0.0 | 4.8 | 0.00 | 1.32 | 0.00 | 86 | 1015.0 |
| 20260510163045 | 15 | 280 | 0.0 | 3.2 | 0.00 | 1.32 | 0.00 | 87 | 1015.2 |
| 20260510161542 | 14 | 280 | 0.0 | 3.2 | 0.00 | 1.32 | 0.00 | 89 | 1015.2 |
| 20260510160040 | 13 | 280 | 0.0 | 4.8 | 0.00 | 1.32 | 0.00 | 89 | 1015.3 |
| 20260510154539 | 13 | 280 | 0.0 | 3.2 | 0.00 | 1.32 | 0.00 | 91 | 1015.4 |
| 20260510153048 | 13 | 280 | 0.0 | 3.2 | 0.00 | 1.32 | 0.00 | 91 | 1015.3 |
| 20260510151536 | 13 | 280 | 0.0 | 3.2 | 0.00 | 1.32 | 0.00 | 91 | 1015.5 |
| 20260510150033 | 12 | 280 | 0.0 | 3.2 | 0.00 | 1.32 | 0.00 | 92 | 1015.6 |
| 20260510144531 | 12 | 280 | 0.0 | 3.2 | 0.00 | 1.32 | 0.00 | 92 | 1015.5 |
| 20260510143028 | 12 | 280 | 0.0 | 3.2 | 0.00 | 1.32 | 0.00 | 93 | 1015.4 |
| 20260510141531 | 12 | 280 | 0.0 | 0.0 | 0.00 | 1.32 | 0.00 | 94 | 1015.1 |
| 20260510140024 | 12 | 280 | 0.0 | 0.0 | 0.00 | 1.32 | 0.00 | 94 | 1015.1 |
| 20260510134523 | 12 | 280 | 0.0 | 0.0 | 0.00 | 1.32 | 0.00 | 95 | 1015.1 |
| 20260510133019 | 11 | 280 | 0.0 | 0.0 | 0.00 | 1.32 | 0.00 | 95 | 1015.0 |
| 20260510131519 | 11 | 280 | 0.0 | 0.0 | 0.00 | 1.32 | 0.00 | 95 | 1014.9 |
| 20260510130036 | 11 | 280 | 0.0 | 0.0 | 0.00 | 1.35 | 0.00 | 95 | 1014.9 |
| 20260510124519 | 11 | 280 | 0.0 | 0.0 | 0.00 | 1.35 | 0.00 | 95 | 1014.7 |
| 20260510123013 | 11 | 280 | 0.0 | 0.0 | 0.00 | 1.35 | 0.00 | 95 | 1014.6 |
| 20260510121513 | 11 | 280 | 0.0 | 0.0 | 0.00 | 1.35 | 0.00 | 95 | 1014.4 |
| 20260510120025 | 11 | 280 | 0.0 | 0.0 | 0.00 | 1.35 | 0.00 | 95 | 1014.3 |
| 20260510114515 | 10 | 280 | 0.0 | 6.4 | 0.00 | 1.35 | 0.00 | 95 | 1014.3 |
| 20260510113009 | 10 | 280 | 1.6 | 4.8 | 0.00 | 1.35 | 0.00 | 95 | 1014.0 |
| 20260510111509 | 10 | 280 | 0.0 | 4.8 | 0.00 | 1.35 | 0.00 | 95 | 1013.9 |
| 20260510110018 | 10 | 280 | 0.0 | 3.2 | 0.00 | 1.35 | 0.00 | 95 | 1013.9 |
| 20260510104509 | 10 | 280 | 0.0 | 0.0 | 0.00 | 1.35 | 0.00 | 95 | 1014.0 |
| 20260510103006 | 10 | 279 | 0.0 | 3.2 | 0.00 | 1.35 | 0.00 | 95 | 1013.8 |
| 20260510101507 | 10 | 279 | 0.0 | 1.6 | 0.00 | 1.35 | 0.00 | 95 | 1013.9 |
| 20260510100005 | 10 | 51 | 0.0 | 0.0 | 0.00 | 1.35 | 0.00 | 95 | 1013.7 |
| 20260510094507 | 10 | 280 | 0.0 | 0.0 | 0.00 | 1.35 | 0.00 | 95 | 1013.7 |
| 20260510093003 | 10 | 280 | 0.0 | 0.0 | 0.00 | 1.35 | 0.00 | 95 | 1014.1 |
| 20260510091503 | 10 | 280 | 0.0 | 0.0 | 0.00 | 1.35 | 0.00 | 95 | 1014.1 |
| 20260510090003 | 10 | 280 | 0.0 | 0.0 | 0.00 | 1.35 | 0.00 | 95 | 1014.1 |
| 20260510084502 | 10 | 280 | 0.0 | 0.0 | 0.00 | 1.35 | 0.00 | 95 | 1014.1 |
| 20260510083001 | 10 | 280 | 0.0 | 3.2 | 0.00 | 1.35 | 0.00 | 95 | 1014.1 |
| 20260510081602 | 10 | 280 | 0.0 | 3.2 | 0.00 | 1.35 | 0.00 | 95 | 1013.8 |
| 20260510074557 | 10 | 280 | 0.0 | 0.0 | 0.00 | 1.35 | 0.00 | 95 | 1013.0 |
| 20260510073106 | 10 | 280 | 0.0 | 0.0 | 0.00 | 1.35 | 0.00 | 95 | 1013.1 |
| 20260510071555 | 10 | 280 | 0.0 | 0.0 | 0.00 | 1.35 | 0.00 | 95 | 1013.3 |
| 20260510070055 | 11 | 280 | 0.0 | 0.0 | 0.00 | 1.35 | 0.00 | 95 | 1013.2 |
| 20260510064554 | 11 | 280 | 0.0 | 0.0 | 0.00 | 1.35 | 0.00 | 95 | 1013.1 |
| 20260510063053 | 11 | 280 | 0.0 | 0.0 | 0.00 | 1.35 | 0.00 | 95 | 1013.2 |
| 20260510061552 | 11 | 280 | 0.0 | 0.0 | 0.00 | 1.35 | 0.00 | 95 | 1013.0 |
| 20260510060052 | 11 | 280 | 0.0 | 0.0 | 0.00 | 1.35 | 0.00 | 95 | 1013.0 |
| 20260510054551 | 11 | 280 | 0.0 | 0.0 | 0.00 | 1.35 | 0.00 | 95 | 1013.0 |
| 20260510053050 | 11 | 280 | 0.0 | 0.0 | 0.00 | 1.35 | 0.00 | 95 | 1013.2 |
| 20260510051554 | 11 | 280 | 0.0 | 0.0 | 0.00 | 1.35 | 0.00 | 95 | 1013.2 |
| 20260510050055 | 11 | 280 | 0.0 | 0.0 | 0.00 | 1.35 | 0.00 | 95 | 1013.2 |
| 20260510044548 | 11 | 280 | 0.0 | 0.0 | 0.00 | 1.35 | 0.00 | 95 | 1013.2 |
| 20260510043047 | 11 | 280 | 0.0 | 0.0 | 0.00 | 1.35 | 0.00 | 95 | 1013.1 |
| 20260510041545 | 11 | 280 | 0.0 | 0.0 | 0.00 | 1.35 | 0.00 | 95 | 1013.2 |
| 20260510040042 | 11 | 280 | 0.0 | 0.0 | 0.00 | 1.35 | 0.00 | 95 | 1012.9 |
| 20260510034547 | 11 | 280 | 0.0 | 0.0 | 0.00 | 1.35 | 1.35 | 95 | 1012.8 |
| 20260510033046 | 11 | 280 | 0.0 | 0.0 | 0.00 | 1.35 | 1.35 | 95 | 1012.8 |
| 20260510031541 | 11 | 280 | 0.0 | 0.0 | 0.00 | 1.35 | 1.35 | 95 | 1012.8 |
| 20260510030041 | 11 | 280 | 0.0 | 0.0 | 0.00 | 1.35 | 1.35 | 95 | 1012.9 |
| 20260510024541 | 11 | 280 | 0.0 | 0.0 | 0.00 | 1.35 | 1.35 | 95 | 1013.0 |
| 20260510023040 | 11 | 280 | 0.0 | 0.0 | 0.00 | 1.35 | 1.35 | 95 | 1013.0 |
| 20260510021540 | 11 | 280 | 0.0 | 0.0 | 0.00 | 1.35 | 1.35 | 95 | 1012.9 |
| 20260510020039 | 11 | 280 | 0.0 | 0.0 | 0.00 | 1.35 | 1.35 | 94 | 1012.9 |
| 20260510014543 | 11 | 280 | 0.0 | 0.0 | 0.00 | 1.35 | 1.35 | 95 | 1012.8 |
| 20260510013039 | 11 | 280 | 0.0 | 0.0 | 0.00 | 1.35 | 1.35 | 95 | 1012.8 |
| 20260510011538 | 11 | 280 | 0.0 | 0.0 | 0.00 | 1.35 | 1.35 | 95 | 1012.5 |
| 20260510010039 | 11 | 280 | 0.0 | 0.0 | 0.03 | 1.35 | 1.35 | 94 | 1012.3 |
| 20260510004637 | 11 | 280 | 0.0 | 0.0 | 0.05 | 1.35 | 1.35 | 94 | 1012.2 |
| 20260510003036 | 12 | 280 | 0.0 | 0.0 | 0.10 | 1.35 | 1.35 | 94 | 1012.2 |
| 20260510001535 | 12 | 280 | 0.0 | 0.0 | 0.13 | 1.35 | 1.35 | 94 | 1012.2 |
| 20260510000038 | 12 | 280 | 0.0 | 0.0 | 0.18 | 1.32 | 1.32 | 93 | 1012.0 |
| 20260509234541 | 12 | 280 | 0.0 | 0.0 | 0.20 | 1.30 | 1.30 | 94 | 1012.1 |
| 20260509233036 | 12 | 280 | 0.0 | 0.0 | 0.23 | 1.24 | 1.24 | 94 | 1012.2 |
| 20260509231533 | 12 | 280 | 0.0 | 0.0 | 0.25 | 1.19 | 1.19 | 94 | 1012.3 |
| 20260509230032 | 12 | 280 | 0.0 | 0.0 | 0.28 | 1.14 | 1.14 | 94 | 1012.1 |
| 20260509224544 | 12 | 280 | 0.0 | 3.2 | 0.25 | 1.07 | 1.07 | 93 | 1012.3 |
| 20260509223030 | 12 | 280 | 0.0 | 0.0 | 0.20 | 0.99 | 0.99 | 94 | 1012.7 |
| 20260509221532 | 12 | 280 | 0.0 | 0.0 | 0.15 | 0.94 | 0.94 | 94 | 1012.7 |
| 20260509220029 | 13 | 280 | 0.0 | 0.0 | 0.13 | 0.86 | 0.86 | 94 | 1012.9 |
| 20260509214529 | 13 | 280 | 0.0 | 0.0 | 0.13 | 0.81 | 0.81 | 94 | 1012.6 |
| 20260509213028 | 13 | 280 | 0.0 | 0.0 | 0.15 | 0.79 | 0.79 | 93 | 1012.8 |
| 20260509211528 | 13 | 280 | 0.0 | 0.0 | 0.20 | 0.79 | 0.79 | 93 | 1013.1 |
| 20260509210028 | 13 | 280 | 0.0 | 0.0 | 0.15 | 0.71 | 0.71 | 93 | 1013.1 |
| 20260509204527 | 13 | 280 | 0.0 | 0.0 | 0.10 | 0.66 | 0.66 | 93 | 1013.1 |
| 20260509203033 | 13 | 280 | 0.0 | 1.6 | 0.10 | 0.61 | 0.61 | 93 | 1013.2 |
| 20260509201526 | 13 | 280 | 0.0 | 1.6 | 0.13 | 0.58 | 0.58 | 93 | 1013.4 |
| 20260509200027 | 13 | 280 | 0.0 | 0.0 | 0.23 | 0.58 | 0.58 | 93 | 1012.5 |
| 20260509194527 | 13 | 280 | 0.0 | 0.0 | 0.33 | 0.56 | 0.56 | 92 | 1012.5 |
| 20260509193024 | 13 | 280 | 0.0 | 0.0 | 0.48 | 0.51 | 0.51 | 91 | 1013.4 |
| 20260509191526 | 13 | 281 | 0.0 | 0.0 | 0.41 | 0.43 | 0.43 | 91 | 1013.2 |
| 20260509190022 | 13 | 280 | 0.0 | 0.0 | 0.33 | 0.36 | 0.36 | 89 | 1013.4 |
| 20260509184539 | 13 | 280 | 0.0 | 6.4 | 0.20 | 0.23 | 0.23 | 87 | 1013.5 |
| 20260509183021 | 15 | 280 | 1.6 | 4.8 | 0.00 | 0.03 | 0.03 | 81 | 1013.1 |
| 20260509181520 | 15 | 280 | 0.0 | 3.2 | 0.00 | 0.03 | 0.03 | 78 | 1012.5 |
| 20260509180022 | 16 | 280 | 0.0 | 4.8 | 0.00 | 0.03 | 0.03 | 74 | 1012.5 |
| 20260509174527 | 17 | 280 | 0.0 | 8.0 | 0.00 | 0.03 | 0.03 | 68 | 1012.4 |
| 20260509173019 | 17 | 280 | 3.2 | 8.0 | 0.00 | 0.03 | 0.03 | 64 | 1012.3 |
| 20260509171517 | 17 | 280 | 3.2 | 8.0 | 0.00 | 0.03 | 0.03 | 64 | 1012.5 |